Regional Weather Roundup
Issued by NWS Huntsville, AL

Home | Current Version | Previous Version | Text Only | Print | Product List | Glossary On
Versions: 1 2 3 4 5 6 7 8 9 10 11 12 13 14 15 16 17 18 19 20 21 22 23 24 25 26 27 28
000
ASUS44 KHUN 232010
RWRHUN

WEATHER ROUNDUP FOR THE TENNESSEE VALLEY
NATIONAL WEATHER SERVICE HUNTSVILLE AL
300 PM CDT FRI JUN 23 2017

ALZ001>004-232100-
NORTHWEST ALABAMA

CITY           SKY/WX    TMP DP  RH WIND       PRES   REMARKS
COURTLAND HCN    N/A     75 N/A N/A W17         N/A
RUSSELLVILLE     N/A     73 N/A N/A MISG        N/A
SHOALS AIRPORT LGT RAIN  76  72  87 SW15      29.83R
SHOALS TVA RES   N/A     75 N/A N/A MISG        N/A
$$

ALZ005>007-016-232100-
NORTH CENTRAL ALABAMA

CITY           SKY/WX    TMP DP  RH WIND       PRES   REMARKS
CULLMAN AG STN   N/A     79 N/A N/A SW8         N/A
DECATUR AP     LGT RAIN  75  74  96 W21G32    29.82R
HUNTSVILLE AP  LGT RAIN  77  74  90 SW22G33   29.82R FOG
MERIDIANVILLE  CLOUDY    81  70  69 S12G25    29.78F
REDSTONE ARSN  LGT RAIN  75  73  94 W17G38    29.82R
VINEMONT AP    HVY RAIN  73  70  92 SW12G25   29.89R
$$

ALZ008>010-232100-
NORTHEAST ALABAMA

CITY           SKY/WX    TMP DP  RH WIND       PRES   REMARKS
ALBERTVILLE    LGT RAIN  81  77  89 S17G24    29.86F
FORT PAYNE     NOT AVBL
SCOTTSBORO AP  LGT RAIN  82  73  74 SW9G23    29.82F
SCOTTSBORO HCN   N/A     86 N/A N/A MISG        N/A
VALLEY HEAD      N/A     84 N/A N/A MISG        N/A
$$

TNZ076-096-097-232100-
SOUTHEASTERN MIDDLE TENNESSEE

CITY           SKY/WX    TMP DP  RH WIND       PRES   REMARKS
TULLAHOMA      PTSUNNY   79  70  73 S18       29.78F
WINCHESTER     MOSUNNY   82  72  69 S14         N/A
$$

...SURROUNDING SITES...

CITY           SKY/WX    TMP DP  RH WIND       PRES   REMARKS
ATLANTA        MOSUNNY   88  70  55 SW15G28   29.95F HX  93
ANNISTON       MOSUNNY   87  72  60 S15G23    29.90F HX  93
BIRMINGHAM     TSTM      77  74  90 SW25G37   29.91R VSB 1/2
CHATTANOOGA    PTSUNNY   89  69  51 S26G38    29.83F HX  93
CORINTH        DRIZZLE   77  73  88 SW10G20   29.79S
DALTON         MOSUNNY   86  70  58 S13G25    29.87F HX  90
GADSDEN        PTSUNNY   88  73  61 SW15G22   29.85F HX  95
GOLDEN TRNGL   LGT RAIN  75  70  83 SW12G21   29.83S FOG
JACKSON TN     CLOUDY    82  77  84 W13       29.75R HX  90
MEMPHIS        CLOUDY    83  77  82 W8        29.78R HX  92
NASHVILLE      CLOUDY    78  73  84 SW20G30   29.70F
OXFORD MS      PTSUNNY   75  73  94 SW8       29.84S
ROME           MOSUNNY   88  71  57 SW14G23   29.87F HX  94
SAVANNAH       CLOUDY    75  73  94 SW10G18   29.78R FOG
SELMER         CLOUDY    75  73  94 SW10      29.78R
TUPELO         CLOUDY    76  72  87 S10       29.83R
TUSCALOOSA     TSTM      74  74 100 SW12G22   29.90R VSB 1/2
$$

...GULF COAST WEATHER...

CITY           SKY/WX    TMP DP  RH WIND       PRES   REMARKS
GULFPORT       CLOUDY    85  78  80 S13G23    29.93F HX  96
PASCAGOULA     CLOUDY    85  76  74 S10       29.95F HX  94
MOBILE         PTSUNNY   85  75  72 S16       29.96F HX  93
GULF SHORES    MOCLDY    84  80  87 S15G22    29.97F HX  97
PENSACOLA      PTSUNNY   85  77  77 S15       29.97F HX  95
DESTIN         PTSUNNY   87  81  82 S10       29.99F HX 104
PANAMA CITY    MOSUNNY   86  77  73 S13       30.01F HX  96
APPALACHICOLA  SUNNY     87  80  79 SW12      30.01F HX 103
$$





USA.gov is the U.S. government's official web portal to all federal, state and local government web resources and services.